[[{"header":{"parameterUnit":"m.s-1","parameterCategory":1,"la1":30.2991,"la2":30.254,"lo1":-89.0895,"lo2":-89.0444,"dy":0.0017,"dx":0.0017,"nx":28,"ny":28,"refTime":"2024-07-06T21:00:00:Z","depth":0,"parameterNumber":2,"parameterNumberName":"U-component_of_WINDS"},"data":[0,0,0,0,0,0,0,0,0,0,0,0,0,0,0,0,0,0,0,0,0,0,0,0,0,0,0,0,0,0,0,0,0,0,0,0,0,0,0,0,0,0,0,0,0,0,0,0,0,0,0,0,0,0,0,0,0,0,1.5011,1.5012,0,1.5109,1.511,1.5111,1.5142,1.5142,1.5142,1.5141,1.5241,1.5244,1.5247,0,0,0,0,0,0,0,0,0,0,0,0,0,1.4848,1.4851,1.5011,1.5012,1.5013,1.5109,1.511,1.5112,1.5143,1.5142,1.5141,1.5141,1.524,1.5243,1.5247,0,0,0,0,0,0,0,0,0,0,0,0,0,1.493,1.4852,1.5011,1.504,1.5044,1.5109,1.511,1.5112,1.5143,1.5142,1.5141,1.5141,1.5238,1.5243,1.5247,1.5289,0,0,1.5261,1.5263,0,0,0,0,0,0,0,0,1.4925,1.4936,1.5035,1.5038,1.5043,1.5113,1.5089,1.5171,1.5143,1.5105,1.5141,1.514,1.5199,1.5206,1.5226,1.5294,1.5298,1.5262,1.5265,1.5267,1.5268,0,0,0,0,0,0,0,1.4919,1.4932,1.505,1.5036,1.5041,1.5048,1.5059,1.5105,1.5154,1.5108,1.5111,1.5122,1.5201,1.5222,1.5229,1.53,1.5262,1.5266,1.5269,1.527,1.5405,1.5406,0,0,0,0,0,0,1.4909,1.4927,1.5047,1.5053,1.4981,1.5051,1.5064,1.5091,1.5154,1.5163,1.5123,1.5123,1.5214,1.5223,1.5232,1.5285,1.5267,1.5271,1.5274,1.5404,1.5405,1.5406,0,0,0,0,0,0,1.4905,1.4919,1.5043,1.499,1.5007,1.5055,1.5085,1.5093,1.5114,1.5165,1.5174,1.5135,1.5214,1.5226,1.5275,1.5289,1.5273,1.5277,1.5403,1.5405,1.5406,1.539,0,0,0,0,0,0,1.4901,1.4918,1.4935,1.4991,1.5009,1.5084,1.5086,1.5096,1.5122,1.5124,1.5179,1.5187,1.5214,1.5268,1.5279,1.5295,1.5281,1.5402,1.5404,1.5406,1.5389,1.539,1.5391,0,0,0,0,0,1.4895,1.4926,1.4936,1.495,1.5032,1.5084,1.5095,1.5126,1.5123,1.514,1.5172,1.5186,1.5285,1.5272,1.5286,1.5303,1.5402,1.5404,1.5405,1.5389,1.539,1.5391,0,0,0,0,0,0,1.4871,1.4934,1.4945,1.4996,1.5035,1.509,1.5112,1.5126,1.5166,1.5166,1.5202,1.5214,1.526,1.5286,1.5271,1.5346,1.5344,1.5349,1.5327,1.5328,1.5329,1.5322,1.5285,0,0,0,0,0,1.4871,1.491,1.4963,1.5003,1.5021,1.5063,1.5087,1.5108,1.5149,1.5165,1.5201,1.524,1.528,1.5306,1.5346,1.5393,1.5405,1.5412,1.5412,1.5413,1.5416,1.5442,1.5445,1.5412,1.5412,1.5412,0,0,1.4873,1.4913,1.4934,1.4999,1.5031,1.5069,1.5077,1.5117,1.5145,1.5171,1.5219,1.5247,1.5293,1.5341,1.5364,1.5364,1.5428,1.5415,1.5415,1.5419,1.5444,1.5448,1.545,1.5414,1.5413,1.5413,0,0,1.4895,1.493,1.4966,1.4998,1.5047,1.5074,1.5083,1.5136,1.5155,1.5204,1.5224,1.5258,1.5327,1.5358,1.5383,1.5416,1.543,1.5428,1.5433,1.5458,1.546,1.5463,1.5474,1.5477,1.5432,1.5432,1.5432,0,1.4891,1.495,1.4982,1.5021,1.5048,1.5074,1.5111,1.514,1.5199,1.5217,1.5217,1.5303,1.5336,1.5391,1.5399,1.5418,1.5429,1.5422,1.5458,1.546,1.5463,1.5474,1.5478,1.5431,1.5431,1.5431,1.5431,0,1.4941,1.4981,1.5005,1.5061,1.5091,1.5128,1.5166,1.5192,1.521,1.5237,1.5286,1.5326,1.5374,1.5389,1.5406,1.5446,1.5445,1.5451,1.5449,1.5465,1.5476,1.548,1.543,1.5431,1.5431,1.5431,0,0,1.4951,1.5025,1.5033,1.5058,1.5114,1.5145,1.5183,1.523,1.5251,1.5291,1.5323,1.538,1.5386,1.5414,1.5435,1.5457,1.548,1.5461,1.5462,1.5462,1.5525,1.5519,1.5523,1.5489,1.549,1.5491,1.552,0,1.4979,1.5049,1.5079,1.5135,1.5171,1.5196,1.5229,1.5266,1.5293,1.5327,1.5356,1.5396,1.5401,1.5418,1.5441,1.5472,1.5492,1.547,1.5518,1.552,1.5505,1.5529,1.5524,1.555,1.5525,1.5526,1.5526,0,1.5022,1.5062,1.5121,1.5171,1.5187,1.5217,1.5262,1.5295,1.5337,1.5354,1.5386,1.5406,1.5446,1.5442,1.5498,1.5482,1.5503,1.5521,1.5523,1.5528,1.5523,1.5534,1.5559,1.5562,1.5533,1.5533,1.5532,0,1.5021,1.509,1.5134,1.5155,1.5215,1.5235,1.526,1.5302,1.5328,1.5367,1.5384,1.5428,1.5451,1.5484,1.5515,1.5509,1.5566,1.5566,1.5581,1.558,1.5592,1.559,1.562,1.5607,1.5607,1.5607,1.5607,0,1.5049,1.5084,1.5134,1.5161,1.5201,1.5235,1.5273,1.53,1.5337,1.5369,1.5393,1.5423,1.5462,1.5497,1.5521,1.5562,1.5573,1.5588,1.5594,1.5585,1.5583,1.5599,1.5598,1.5608,1.5608,1.5607,1.5607,0,1.5055,1.509,1.514,1.5192,1.5206,1.5233,1.5278,1.5304,1.5332,1.5372,1.5383,1.5426,1.5468,1.5502,1.5557,1.5573,1.5616,1.5623,1.5601,1.5604,1.5618,1.5616,1.5658,1.5665,1.5648,1.5648,1.5648,0,1.507,1.5098,1.5153,1.5177,1.5202,1.5239,1.5266,1.5301,1.5327,1.5377,1.5397,1.544,1.5477,1.5542,1.5578,1.5619,1.5627,1.5639,1.5634,1.5624,1.5626,1.5624,1.5626,1.5639,1.5639,1.5639,1.5639,0,1.5093,1.5109,1.5146,1.519,1.5221,1.5257,1.5293,1.5311,1.5352,1.538,1.5423,1.5451,1.5507,1.5549,1.5594,1.562,1.5636,1.5641,1.5646,1.5638,1.5623,1.563,1.5602,1.564,1.564,1.564,1.564,1.5639,1.5103,1.5128,1.5171,1.5212,1.5243,1.5276,1.5303,1.5334,1.5371,1.5419,1.5437,1.548,1.5521,1.5584,1.561,1.5644,1.5646,1.5654,1.5656,1.5658,1.5656,1.5619,1.5652,1.5653,1.5653,1.5653,1.5653,0,1.5126,1.5155,1.5192,1.5242,1.5274,1.5287,1.5327,1.5353,1.5391,1.5428,1.5463,1.5512,1.5553,1.5592,1.5635,1.5654,1.5663,1.5664,1.5663,1.5669,1.5652,1.5643,1.5657,1.5657,1.5657,1.5657,1.5657,1.5657,1.5141,1.5184,1.5205,1.5263,1.5292,1.5335,1.5357,1.5387,1.5417,1.547,1.5504,1.553,1.5567,1.5613,1.5651,1.5661,1.5675,1.5675,1.5687,1.5671,1.567,1.5669,1.566,1.5678,1.5678,1.57,1.57,1.5701]},{"header":{"parameterUnit":"m.s-1","parameterCategory":1,"la1":30.2991,"la2":30.254,"lo1":-89.0895,"lo2":-89.0444,"dy":0.0017,"dx":0.0017,"nx":28,"ny":28,"refTime":"2024-07-06T21:00:00:Z","depth":0,"parameterNumber":3,"parameterNumberName":"V-component_of_WINDS"},"data":[0,0,0,0,0,0,0,0,0,0,0,0,0,0,0,0,0,0,0,0,0,0,0,0,0,0,0,0,0,0,0,0,0,0,0,0,0,0,0,0,0,0,0,0,0,0,0,0,0,0,0,0,0,0,0,0,0,0,2.3053,2.3053,0,2.3055,2.3055,2.3055,2.303,2.3029,2.3029,2.3028,2.3028,2.3029,2.3029,0,0,0,0,0,0,0,0,0,0,0,0,0,2.3028,2.3028,2.3053,2.3053,2.3053,2.3055,2.3055,2.3055,2.303,2.3029,2.3028,2.3028,2.3028,2.3029,2.3029,0,0,0,0,0,0,0,0,0,0,0,0,0,2.3035,2.3028,2.3053,2.3041,2.304,2.3055,2.3055,2.3055,2.303,2.3029,2.3028,2.3027,2.3028,2.3029,2.303,2.3055,0,0,2.3032,2.3033,0,0,0,0,0,0,0,0,2.3034,2.3036,2.3043,2.3042,2.3041,2.3041,2.3046,2.3055,2.303,2.3034,2.3028,2.3027,2.3033,2.3034,2.3036,2.3055,2.3055,2.3033,2.3033,2.3033,2.3034,0,0,0,0,0,0,0,2.3034,2.3036,2.3054,2.3043,2.3042,2.3035,2.3035,2.3047,2.3039,2.3034,2.3032,2.3032,2.3032,2.3035,2.3036,2.3055,2.3032,2.3033,2.3034,2.3034,2.3093,2.3094,0,0,0,0,0,0,2.3035,2.3035,2.3054,2.3054,2.3035,2.3036,2.3036,2.3042,2.3039,2.3038,2.3033,2.3031,2.3034,2.3035,2.3036,2.3064,2.3033,2.3034,2.3035,2.3092,2.3093,2.3094,0,0,0,0,0,0,2.3035,2.3037,2.3054,2.3044,2.3046,2.3038,2.3045,2.3043,2.3045,2.3039,2.3037,2.3038,2.3033,2.3034,2.305,2.3063,2.3035,2.3036,2.3091,2.3092,2.3094,2.3121,0,0,0,0,0,0,2.3034,2.3037,2.3047,2.3045,2.3046,2.3069,2.3045,2.3043,2.3047,2.3044,2.3042,2.3041,2.3033,2.3049,2.3051,2.3064,2.3036,2.309,2.3091,2.3093,2.3119,2.3123,2.3127,0,0,0,0,0,2.3033,2.3055,2.3048,2.305,2.3059,2.307,2.307,2.3061,2.3048,2.3058,2.3053,2.3041,2.3062,2.3051,2.3053,2.3067,2.3089,2.3091,2.3093,2.3117,2.3122,2.3127,0,0,0,0,0,0,2.306,2.3055,2.3047,2.3068,2.307,2.3065,2.3077,2.3067,2.3072,2.3069,2.3056,2.3056,2.3073,2.3072,2.3059,2.309,2.3073,2.3076,2.309,2.3095,2.3099,2.3099,2.3037,0,0,0,0,0,2.3069,2.3078,2.3073,2.3092,2.3093,2.3085,2.309,2.3082,2.3082,2.3083,2.3079,2.308,2.3086,2.3091,2.3097,2.3119,2.3117,2.3129,2.3133,2.3137,2.3139,2.3148,2.3153,2.3102,2.3102,2.3102,0,0,2.3086,2.3084,2.3091,2.3098,2.3098,2.3107,2.3086,2.3097,2.3103,2.3084,2.3098,2.3096,2.3096,2.3114,2.3122,2.3113,2.3153,2.314,2.3142,2.3143,2.3151,2.3156,2.316,2.3103,2.3103,2.3103,0,0,2.3122,2.3122,2.3138,2.3138,2.3138,2.3132,2.3136,2.3133,2.3131,2.3145,2.313,2.3137,2.315,2.3149,2.3151,2.3185,2.3173,2.3188,2.3209,2.3218,2.3222,2.3225,2.3236,2.324,2.319,2.319,2.319,0,2.3143,2.3157,2.3147,2.3158,2.3161,2.3144,2.3159,2.316,2.3162,2.3163,2.3154,2.3167,2.3166,2.3183,2.3191,2.3194,2.3197,2.3187,2.3222,2.3226,2.3229,2.3239,2.3243,2.3192,2.3192,2.3191,2.3191,0,2.3182,2.3192,2.3204,2.3206,2.321,2.3224,2.3214,2.322,2.3211,2.3206,2.322,2.3218,2.3222,2.3226,2.3218,2.3242,2.3236,2.3225,2.3207,2.3235,2.3244,2.3248,2.3194,2.3194,2.3193,2.3193,0,0,2.3235,2.323,2.3235,2.3235,2.3233,2.324,2.3252,2.3256,2.326,2.3262,2.327,2.328,2.3269,2.3271,2.3263,2.3272,2.3297,2.3259,2.3259,2.3265,2.332,2.3327,2.3332,2.3289,2.329,2.3291,2.3319,0,2.3268,2.3288,2.3279,2.33,2.3307,2.3291,2.3301,2.3301,2.3296,2.3302,2.3297,2.3303,2.3289,2.329,2.3298,2.3292,2.3307,2.329,2.3296,2.3296,2.3295,2.3337,2.3345,2.3372,2.3323,2.3324,2.3324,0,2.331,2.3313,2.3334,2.333,2.3333,2.3342,2.3344,2.335,2.3348,2.3344,2.3346,2.3336,2.3346,2.3329,2.3342,2.333,2.3332,2.333,2.3331,2.3329,2.3311,2.3336,2.3381,2.3385,2.333,2.333,2.3329,0,2.3344,2.3353,2.3367,2.3367,2.3363,2.3369,2.3368,2.3366,2.3368,2.337,2.3371,2.3374,2.3376,2.3378,2.3368,2.3357,2.3382,2.3365,2.3377,2.3378,2.3382,2.3382,2.3427,2.3386,2.3386,2.3386,2.3386,0,2.3381,2.3394,2.3381,2.339,2.3403,2.3392,2.3406,2.3403,2.3401,2.3407,2.3394,2.34,2.3388,2.3392,2.3385,2.3396,2.3397,2.3393,2.3391,2.3393,2.3394,2.3393,2.3391,2.3387,2.3387,2.3387,2.3387,0,2.3421,2.3413,2.3426,2.3421,2.3419,2.343,2.3425,2.3431,2.3426,2.3434,2.3435,2.3426,2.3431,2.3422,2.3426,2.3421,2.3435,2.3431,2.3435,2.3433,2.3446,2.3444,2.3491,2.3496,2.3454,2.3454,2.3455,0,2.3444,2.3454,2.3449,2.3452,2.3451,2.3457,2.3459,2.3449,2.3451,2.345,2.3456,2.346,2.3462,2.347,2.3464,2.3466,2.346,2.3477,2.3461,2.3463,2.3459,2.3457,2.3458,2.348,2.348,2.3481,2.3481,0,2.3486,2.3482,2.3486,2.3488,2.3491,2.3492,2.3492,2.3495,2.3484,2.3487,2.3492,2.3494,2.3497,2.35,2.3501,2.3498,2.3487,2.3486,2.3489,2.3491,2.3493,2.349,2.3443,2.3485,2.3485,2.3484,2.3484,2.3484,2.3517,2.3524,2.3522,2.3526,2.3525,2.3525,2.353,2.3525,2.3529,2.3531,2.3524,2.353,2.3527,2.3527,2.3525,2.3529,2.3522,2.3526,2.3527,2.3528,2.3529,2.3493,2.3529,2.3529,2.3529,2.3529,2.3529,0,2.3557,2.3554,2.3558,2.3559,2.3562,2.3551,2.3551,2.3554,2.3559,2.3557,2.356,2.3564,2.3567,2.356,2.3562,2.3566,2.3561,2.3567,2.3565,2.3565,2.3536,2.3533,2.3571,2.3571,2.357,2.357,2.357,2.357,2.3578,2.3588,2.3583,2.3593,2.359,2.3595,2.3595,2.3595,2.3594,2.3599,2.3601,2.3597,2.3593,2.3594,2.3596,2.3594,2.3594,2.3601,2.3598,2.3571,2.3567,2.3563,2.356,2.3602,2.3602,2.3625,2.3625,2.3626]}]]